Showing default

USA 270, 41744

Orbit data source: Space-Track

USA 270, 41744 is a payload satellite owned by USAF AFSPC (US) in GEO that was launched on Fri, 19 Aug 2016 UTC via a DELTA 4M+(4,2) launch vehicle from the Air Force Eastern Test Range (AFETR). Payload-class satellites include a variety of spacecraft equipped with specific instruments for various scientific and technological missions. These include communications satellites like Starlink; space stations such as the ISS; scientific satellites like the Hubble; Earth observation satellites from companies like Planet Labs, Umbra, and HawkEye 360; GPS; miniature CubeSats for education and research; and military/defense satellites.

Not visible in the next 10 days
Identifier
41744, 2016-052A
Orbit
GEO
Country
Flag of USUS
Related business
Manufacturer
OATK SSG
Mission
Operational Defense Classified
Bus & Motor
GEOSTAR-1, AOCS
Mass
500 kg wet, 500 kg dry
Launch date (UTC)
2016-08-19 (10 years ago)
Launch vehicle
DELTA 4M+(4,2)
Launch site
Air Force Eastern Test Range (AFETR)
Object type
Payload
Rocket body
Debris
Shape & HBR
Box + 2 Pan, 2.5 m
Radar Cross Section
7.621 m²

Expand to show TLE details & history
Last TLE update: 3 days ago

TLE from 3 days ago
0 USA 270
1 41744U 16052A   26252.32549296 -.00000369  00000-0  00000+0 0  9999
2 41744   4.4067  76.0724 0008290 113.6516  42.1742  1.00273169 28976
Epoch: 2026-09-09T07:48Z
TLE epoch observation values (Epoch: 2026-09-09T07:48:42.591Z)
Latitude
1.82572°
Longitude
126.46999°
Altitude
35,759.614 km
Speed
3.077 km/s
True Right ascension
15h 28m 06s
True Declination
1° 49' 26"
Sunlit
Object was in daylight at epoch
Visualization orbit readout
Latitude
Unknown
Longitude
Unknown
Altitude
Unknown
Speed
Unknown
Apparent Right ascension
Unknown
Apparent Declination
Unknown
Sunlit
N/A
Visualization observer readout
Local Sidereal Time
13:32:19
Azimuth
Unknown
Elevation
Unknown
Doppler factor
Unknown
Orbital elements
Apogee altitude
35,822.223 km
Perigee altitude
35,752.313 km
Semi-major axis
42,165.405 km
Eccentricity
0.00083
Inclination
4.4067°
RAAN
76.0724°
Arg. of periapsis
113.6516°
True anomaly
42.23803°
Mean anomaly
42.1742°
Eccentric anomaly
42.20611°
Mean motion
0.25067 °/min
Orbital period
1,436.13 mins
BSTAR
0
Loading maneuver chart data...
Computing Atmospheric mass density...
Loading historical data...
Loading historical data...
Loading historical data...
Loading historical data...
Loading historical data...
Loading historical data...
Loading historical data...
Other satellites on launch #52 in the year 2016 (2016-08-19 UTC)

Documentation

Showing up to 5 results
|